RH
96 94 94 90 88 83 48 67 66 33 26 37 58 83 66 43 33 33 35 34 39 38 36 38 37 50 48 47 56 72 70 87 96 68 71 87 87 82 91 96 87 92 93 90
92 86 90 91 94 89 68 90 69 39 35 42 48 38 31 33 33 36 38 39 39 38 40 52 36 30 38 43 53 69 70 92 96 69 68 81 88 85 82 83 93 97 94 85
88 87 96 96 95 87 59 84 71 58 53 48 35 54 56 51 39 36 36 37 34 38 43 43 59 38 35 43 41 40 51 85 76 81 64 89 98 96 88 80 98 92 94 94
84 97 97 93 78 77 69 80 76 59 69 62 68 63 59 61 58 44 41 48 49 55 64 53 57 49 43 43 37 37 67 96 89 74 70 82 86 92 90 93 88 85 83 100
93 87 92 81 73 68 81 90 95 88 83 72 70 69 68 62 57 56 59 71 58 62 75 69 74 64 66 67 77 93 73 96 87 86 68 67 83 91 94 97 100 100 100 96
94 92 87 82 83 78 95 84 82 95 80 74 72 69 60 58 56 52 56 60 71 76 70 64 62 63 63 67 69 74 79 92 95 91 64 65 83 94 89 94 97 89 97 85
84 84 84 87 86 86 83 97 99 99 84 76 64 60 61 73 81 85 68 65 72 76 77 61 54 58 67 79 68 71 94 90 92 93 93 98 90 73 69 88 99 99 98 99
82 87 82 76 72 73 72 80 96 98 97 81 81 73 95 89 76 73 79 81 89 94 96 93 94 95 92 85 80 68 54 86 96 96 96 94 97 92 90 88 98 99 98 99
87 81 75 71 70 79 85 80 82 98 98 91 91 95 91 98 98 79 76 73 77 82 94 98 99 80 81 93 88 75 73 79 87 98 94 99 100 90 80 80 100 96 96 100
81 74 72 70 77 87 86 75 86 99 97 96 97 97 99 97 95 95 78 93 83 77 91 96 94 83 89 91 94 93 94 96 96 97 94 96 92 87 85 97 96 89 97 99
75 72 72 79 86 80 82 78 89 94 98 96 89 92 96 94 94 97 88 81 81 94 98 94 87 96 96 90 94 95 93 98 100 93 100 99 87 87 92 97 94 90 94 93
72 71 73 82 78 80 83 85 87 82 93 97 92 98 96 95 96 96 91 91 89 95 95 95 89 90 92 96 99 82 92 98 100 97 97 96 96 96 95 95 94 92 97 92
73 70 78 78 79 93 61 87 85 90 78 97 95 96 95 77 92 98 98 93 96 95 96 96 93 95 91 96 97 96 95 96 97 99 98 96 95 90 87 89 89 85 81 79
70 73 86 80 94 90 74 70 90 91 91 94 95 88 94 82 92 97 98 80 96 93 88 95 95 92 75 98 94 94 98 90 100 100 94 95 95 93 95 86 81 81 88 84
76 86 83 84 93 64 40 40 59 87 99 96 94 88 78 85 77 91 96 96 94 94 94 96 98 93 84 92 86 100 100 100 99 100 98 98 97 97 95 96 100 96 99 92
73 88 90 90 99 79 79 96 71 64 92 97 95 88 63 79 86 79 90 94 91 96 96 98 98 95 94 96 100 99 97 97 97 98 97 97 96 97 95 100 97 93 95 95
89 91 88 83 71 55 66 78 66 80 88 95 94 93 66 57 89 81 84 68 89 91 96 97 95 94 79 96 100 98 97 96 97 93 93 94 92 96 92 98 94 95 95 93
85 81 80 75 66 45 59 54 56 67 56 60 95 82 75 61 84 96 80 92 91 85 96 93 92 79 85 98 99 98 96 91 89 92 91 97 97 98 89 89 93 95 95 88
83 58 40 32 35 60 58 60 34 39 58 94 92 97 97 60 62 87 89 84 89 74 89 88 59 79 100 100 100 100 98 99 97 91 78 83 91 92 85 91 84 100 97 95
64 42 25 56 37 51 48 29 63 68 66 85 94 64 95 71 69 84 91 94 94 100 99 65 89 100 99 99 98 100 97 95 95 96 88 90 88 91 91 95 92 94 90 82
35 35 49 35 43 34 55 83 87 84 96 86 89 80 93 68 98 98 97 98 93 98 96 84 95 99 99 92 90 83 90 73 73 80 74 76 83 89 92 83 80 87 84 80
45 34 36 31 57 74 73 92 78 94 100 94 100 90 80 82 92 97 92 96 86 100 79 87 100 99 92 90 89 77 68 68 71 77 73 75 76 76 82 84 84 82 82 81
19 37 70 78 85 90 97 100 94 99 96 97 94 93 94 82 78 96 89 94 100 75 93 100 100 97 91 92 82 73 73 74 76 80 78 78 74 77 82 86 84 85 87 85
83 81 94 92 99 100 100 100 99 85 95 95 96 100 99 94 90 98 90 91 81 92 98 100 99 98 96 86 80 81 85 83 84 88 91 89 92 92 91 92 92 94 94 89
92 84 100 100 90 91 94 92 93 81 86 97 96 95 83 94 85 86 80 82 98 99 100 99 93 91 96 95 89 87 88 91 95 96 96 93 92 93 94 88 90 89 88 90
81 86 94 81 94 92 94 96 96 71 91 92 90 92 89 99 94 93 100 94 100 97 99 92 92 96 96 95 92 93 97 98 97 96 95 96 94 94 96 96 88 86 91 93
90 94 72 90 97 99 90 91 82 72 90 98 93 98 100 92 96 100 99 100 98 95 90 82 77 89 90 83 88 96 100 100 100 99 99 98 92 94 97 97 86 88 85 83
Wind_Speed
8 9 7 12 16 19 15 5 3 5 3 2 1 2 3 2 2 2 2 0 3 4 3 4 4 6 7 9 8 7 6 5 3 7 4 4 3 4 4 2 3 2 3 5
5 8 9 9 11 14 11 3 3 4 1 1 2 4 3 2 3 3 3 4 5 1 2 2 3 1 4 9 9 9 5 1 1 6 6 5 2 3 3 4 3 5 3 5
6 7 8 9 10 11 8 2 3 3 2 1 1 5 5 3 3 3 4 3 2 2 4 4 4 3 4 9 8 15 12 4 7 7 8 4 3 3 1 4 3 3 5 4
4 5 7 8 10 8 5 1 3 2 3 3 3 1 4 9 8 6 4 2 7 7 5 4 5 4 3 1 8 12 9 7 6 8 9 5 5 6 7 6 4 5 4 4
2 4 6 8 9 8 2 0 1 4 3 2 4 6 3 10 11 4 5 6 8 7 7 8 7 4 4 6 7 6 3 3 5 5 9 10 5 6 4 2 2 2 2 5
3 4 5 7 8 7 1 1 2 3 3 2 2 5 7 8 8 9 8 6 4 8 13 8 7 7 6 7 6 8 4 4 3 6 6 7 6 8 6 3 1 6 3 6
2 4 5 6 5 4 3 2 1 2 5 3 8 5 7 8 6 7 7 9 8 2 6 6 2 4 7 7 11 7 6 6 4 2 1 5 2 5 7 5 1 1 2 4
3 4 5 7 8 7 8 3 1 1 3 5 7 8 2 8 7 8 7 2 1 3 2 1 3 3 3 6 6 8 6 4 2 3 4 2 2 3 3 2 3 3 2 4
3 4 7 8 7 7 7 6 6 4 3 4 1 4 4 2 2 5 1 3 3 3 2 2 4 3 4 3 4 3 6 4 4 1 5 5 4 4 3 1 1 1 3 2
4 7 6 7 8 5 4 4 5 6 2 2 4 1 3 1 1 2 3 3 2 1 1 2 3 4 3 4 3 1 2 2 4 4 3 2 4 7 5 2 2 5 3 2
5 6 7 7 6 6 4 4 3 2 1 4 7 6 4 4 3 1 3 4 3 2 2 2 3 1 2 5 3 3 3 2 2 2 3 3 7 0 1 0 4 6 4 3
5 6 7 5 7 6 2 2 1 3 0 1 11 15 14 9 3 2 2 3 2 2 2 2 2 3 3 2 2 4 3 2 1 3 3 3 4 6 4 4 3 5 3 4
6 8 8 4 5 1 0 4 5 2 2 3 2 3 6 16 6 4 1 3 3 1 2 1 3 5 4 3 3 3 5 3 3 2 2 5 6 7 8 8 6 4 6 6
8 8 3 3 3 4 1 9 7 4 2 1 2 4 8 15 8 9 10 9 3 4 4 3 4 3 5 3 3 3 1 4 4 2 4 2 6 6 5 6 7 7 9 8
7 4 3 1 8 13 14 18 22 10 3 1 3 7 12 13 18 20 22 15 5 3 3 4 3 2 3 2 3 4 3 1 2 1 2 2 2 3 4 3 4 7 5 6
4 3 4 3 14 9 4 2 3 22 7 1 2 3 10 16 11 24 22 14 7 3 3 3 2 3 2 3 3 4 4 2 2 2 3 3 4 2 4 2 6 9 5 8
12 15 18 18 12 11 12 3 16 13 4 1 3 2 5 20 4 5 5 17 4 3 2 3 2 4 4 3 2 5 6 5 3 6 5 3 3 3 12 10 10 10 11 10
21 22 22 21 19 15 17 22 20 7 8 7 3 4 2 15 4 3 5 2 3 5 3 2 2 3 3 3 4 4 6 6 5 8 9 4 9 9 11 11 8 7 8 10
20 18 12 9 9 5 5 6 15 26 11 3 3 5 3 12 4 3 3 2 3 2 3 2 3 3 5 3 3 3 4 3 5 7 8 9 4 5 11 10 11 3 7 10
15 6 7 3 6 9 4 6 6 9 9 4 3 5 3 4 4 5 3 3 2 3 2 3 3 2 3 3 4 4 6 8 8 4 8 8 7 6 5 7 12 10 8 11
4 5 3 4 8 6 6 4 4 4 5 3 3 4 5 4 2 2 3 1 2 3 2 3 2 2 3 5 5 12 10 10 11 8 10 12 12 8 8 10 12 11 12 13
9 16 10 7 10 5 7 4 4 5 1 4 4 5 4 3 3 3 4 2 3 2 1 3 2 2 4 5 5 12 13 12 11 9 12 13 13 14 14 13 13 14 14 15
9 9 6 4 5 13 7 7 5 4 4 3 5 6 2 4 4 2 4 5 1 1 3 2 1 3 4 5 7 9 13 13 12 13 13 13 15 15 15 16 16 17 18 17
5 5 8 4 5 4 1 2 3 3 2 5 5 3 2 2 4 1 5 2 4 4 4 1 2 4 4 6 9 9 11 13 14 16 15 15 15 16 18 17 18 18 19 19
4 5 6 4 2 2 3 3 3 2 2 2 3 2 2 3 4 3 4 6 4 2 2 2 4 6 5 4 10 11 13 14 16 17 18 18 17 16 17 20 20 21 18 17
5 7 4 2 2 5 3 2 3 5 2 2 2 2 4 4 3 5 3 3 1 3 3 3 5 4 5 10 13 16 16 15 16 18 17 15 16 17 19 21 20 17 17 19
6 3 3 2 1 2 4 2 4 10 2 2 3 5 2 2 4 4 1 0 3 6 6 5 10 7 13 18 17 16 16 16 18 18 17 19 21 20 19 19 19 18 19 20
Wind_Direction
359 356 360 353 351 351 5 10 3 170 164 31 202 186 235 202 221 143 267 211 246 242 289 277 236 221 195 168 148 161 201 152 213 235 260 194 153 209 156 183 247 212 162 266
3 1 356 350 352 2 354 346 254 186 204 248 308 318 323 268 241 206 195 227 212 309 282 308 283 63 199 163 156 170 189 174 8 327 350 348 104 235 146 124 91 218 158 264
354 352 12 15 4 355 353 38 341 329 38 200 118 356 310 332 321 266 248 258 255 250 244 211 263 252 194 193 186 191 169 156 162 202 215 167 222 238 200 141 148 206 220 275
358 9 6 4 4 357 354 45 257 203 293 326 352 30 265 287 285 225 199 248 234 213 240 243 252 267 307 216 230 225 158 199 183 227 243 221 238 192 184 179 201 171 242 207
18 15 21 5 6 7 32 356 9 355 275 309 327 295 269 288 291 235 248 215 232 259 227 218 228 242 222 227 212 229 234 239 172 253 251 259 244 208 158 131 190 316 65 287
45 28 3 350 341 8 55 291 207 131 249 254 260 241 253 283 292 264 233 243 257 251 256 234 215 205 220 211 192 202 196 158 143 249 255 268 258 204 179 158 173 146 176 229
360 342 341 359 6 348 314 278 251 115 259 235 258 274 285 302 318 295 294 283 256 227 347 319 311 278 249 231 216 199 188 176 200 249 33 245 278 24 160 119 105 117 26 298
345 338 341 338 321 313 307 282 176 263 267 250 272 264 284 286 278 269 251 316 303 157 191 252 262 256 248 231 212 199 187 199 188 209 210 127 332 348 127 181 268 223 179 305
334 341 333 324 323 318 294 303 271 236 277 246 265 271 249 252 309 328 42 38 342 26 132 171 218 256 236 251 4 63 136 126 153 149 254 221 54 67 42 116 284 318 108 351
348 329 325 325 330 340 339 309 285 240 245 291 24 138 208 216 306 258 338 348 315 307 225 234 225 244 228 162 124 119 98 23 210 245 250 103 4 322 329 161 198 46 57 354
334 328 328 333 349 347 297 297 341 266 280 57 30 21 11 359 30 118 291 353 327 211 199 180 251 247 76 86 38 13 56 357 26 303 100 221 328 110 331 223 37 47 13 337
328 326 333 344 342 315 286 148 302 311 145 108 104 81 67 47 7 318 308 236 298 306 341 39 8 41 34 156 88 4 57 96 119 137 186 230 10 69 61 47 49 25 16 329
333 337 337 340 325 1 190 132 25 78 169 82 52 12 31 11 3 289 234 282 342 357 226 56 81 76 358 55 56 100 14 14 95 80 7 55 64 54 36 29 32 12 359 1
339 331 334 354 57 143 129 88 57 86 351 86 22 52 51 12 17 21 240 237 17 61 29 66 57 69 30 54 96 77 298 343 341 77 23 21 70 40 19 359 10 2 351 353
334 348 343 6 140 122 111 85 61 57 15 11 142 104 30 25 42 43 43 65 58 33 52 45 50 51 72 71 73 29 349 294 37 288 282 230 275 307 5 353 332 331 330 332
348 64 50 124 151 122 61 70 8 9 350 227 124 121 18 12 54 52 40 42 45 48 81 65 40 316 98 82 73 308 344 356 184 277 287 217 286 221 4 280 301 321 301 326
107 99 94 91 96 96 65 66 317 327 322 337 135 80 22 359 344 22 67 48 53 67 82 57 46 19 47 61 68 318 349 354 358 2 345 17 355 278 322 308 303 317 317 308
119 102 91 83 83 87 45 28 19 69 83 48 49 345 359 9 333 6 27 59 29 30 83 49 55 24 51 56 301 330 344 340 10 350 344 270 301 314 330 334 317 306 309 315
116 106 97 88 44 48 9 26 36 58 57 89 53 354 331 346 351 348 11 66 64 51 57 37 66 39 42 277 308 330 327 325 302 327 348 355 2 333 337 337 326 299 304 315
119 109 55 46 8 341 23 16 21 27 23 39 38 352 312 326 326 356 23 28 66 61 33 81 73 83 256 282 288 286 315 325 339 341 347 339 334 325 318 312 328 329 328 335
67 63 70 39 27 48 41 45 44 3 28 25 321 341 336 327 346 328 16 74 26 65 335 79 69 18 309 325 330 337 330 330 336 331 332 334 321 309 317 320 321 326 328 330
92 109 91 43 28 35 67 12 12 44 49 335 341 331 305 313 325 19 345 70 41 60 300 60 65 282 286 322 315 334 345 343 343 353 336 329 328 328 329 323 326 322 323 322
73 56 50 32 338 39 51 2 335 350 350 339 331 326 306 344 1 29 44 57 28 43 44 69 133 269 304 310 310 325 339 340 335 328 325 322 321 320 318 315 316 319 319 318
60 58 34 69 11 31 345 233 254 263 290 319 321 294 16 334 27 20 66 287 43 45 39 304 270 266 284 303 323 330 324 323 321 320 316 313 310 308 314 314 318 318 314 312
68 55 51 59 58 323 274 267 295 292 273 360 354 360 54 353 49 35 40 29 29 70 253 260 282 293 299 299 317 314 315 312 308 310 314 316 317 316 314 318 317 316 313 313
67 43 45 2 45 347 328 308 298 304 282 324 54 53 47 17 79 44 9 74 343 272 261 273 295 304 293 299 310 317 317 313 312 317 317 312 311 309 311 314 317 320 316 309
56 22 16 51 5 303 322 316 326 329 54 38 66 49 252 340 42 24 34 257 288 307 312 324 316 307 308 316 316 317 315 313 314 312 310 308 315 314 313 309 320 319 316 312